This demonstration page uses our WeatherBlox Daily Observations layout. Learn more.

Left ArrowRight Arrow

Hourly Observations for January 2, 2021

Temp ( °F °C ) Dew Point ( °F °C ) Humidity (%) Winds ( mph kmh ) Pressure ( in mb ) Visibility ( mi km ) Precip ( " mm )
12:53 am 00:53 Cloudy 45 7.2 23 -5 42 42 SW 20 31 29.68 1005 10 16 0.00 0.00
1:53 am 01:53 Clear 44 6.7 23 -5 43 43 SW 17 28 29.66 1004 10 16 0.00 0.00
2:53 am 02:53 Clear 42 5.6 23 -5 47 47 WSW 12 19 29.70 1006 10 16 0.00 0.00
3:53 am 03:53 Clear 42 5.6 23 -5 47 47 WSW 12 19 29.70 1006 10 16 0.00 0.00
4:53 am 04:53 Cloudy 45 7.2 23 -5 42 42 SW 22 35 29.69 1005 10 16 0.00 0.00
5:53 am 05:53 Mostly Cloudy 44 6.7 24 -4.4 45 45 SW 21 33 29.69 1005 10 16 0.00 0.00
6:53 am 06:53 Partly Cloudy 43 6.1 24 -4.4 47 47 SW 21 33 29.67 1005 10 16 0.00 0.00
7:53 am 07:53 Clear 41 5 25 -3.9 53 53 SW 20 31 29.69 1005 10 16 0.00 0.00
8:53 am 08:53 Sunny 40 4.4 25 -3.9 55 55 SW 21 33 29.70 1006 10 16 0.00 0.00
9:53 am 09:53 Sunny 42 5.6 25 -3.9 51 51 SW 30 48 29.71 1006 10 16 0.00 0.00
10:53 am 10:53 Sunny 45 7.2 26 -3.3 48 48 SW 25 41 29.71 1006 10 16 0.00 0.00
11:53 am 11:53 Sunny 49 9.4 26 -3.3 41 41 SW 28 44 29.69 1005 10 16 0.00 0.00
12:53 pm 12:53 Sunny 50 10 25 -3.9 38 38 SW 21 33 29.67 1005 10 16 0.00 0.00
1:53 pm 13:53 Sunny 51 10.6 23 -5 33 33 WSW 25 41 29.67 1005 10 16 0.00 0.00
2:53 pm 14:53 Sunny 50 10 23 -5 35 35 WSW 20 31 29.68 1005 10 16 0.00 0.00
3:53 pm 15:53 Sunny 44 6.7 23 -5 43 43 WSW 12 19 29.69 1006 10 16 0.00 0.00
4:53 pm 16:53 Clear 41 5 22 -5.6 47 47 SW 18 30 29.70 1006 10 16 0.00 0.00
5:53 pm 17:53 Clear 40 4.4 23 -5 51 51 SW 18 30 29.67 1005 10 16 0.00 0.00
6:53 pm 18:53 Clear 40 4.4 23 -5 51 51 SW 20 31 29.65 1004 10 16 0.00 0.00
7:53 pm 19:53 Clear 40 4.4 23 -5 51 51 SW 23 37 29.63 1004 10 16 0.00 0.00
8:53 pm 20:53 Clear 41 5 23 -5 49 49 SSW 21 33 29.63 1004 10 16 0.00 0.00
9:53 pm 21:53 Clear 42 5.6 23 -5 47 47 SW 24 39 29.61 1003 10 16 0.00 0.00
10:53 pm 22:53 Clear 44 6.7 22 -5.6 41 41 SSW 24 39 29.57 1001 10 16 0.00 0.00
11:53 pm 23:53 Clear 43 6.1 22 -5.6 43 43 SSW 28 44 29.55 1001 10 16 0.00 0.00

Powered by AerisWeather